Location: Czekan�w
(50.3488°N, 18.7344°E)
Time: 01:22:37
(UTC+00:00)

SJ-12 - Pass Details

Date: 17 February 2020
Orbit: 569 x 585 km, 97.7° (Epoch: 05 April)

Event Time Altitude Azimuth Distance (km) Brightness Sun altitude
Rises 04:16:18 0° 12° (NNE) 2,812 7.6 -16.2°
Reaches altitude 10° 04:18:28 10° 11° (N) 1,910 6.7 -15.8°
Maximum altitude 04:22:36 76° 286° (WNW) 607 3.8 -15.2°
Drops below altitude 10° 04:26:43 10° 201° (SSW) 1,902 6.4 -14.5°
Sets 04:28:52 0° 200° (SSW) 2,798 7.2 -14.2°
